This demonstration page uses our WeatherBlox Daily Observations layout. Learn more.

Left ArrowRight Arrow

Hourly Observations for October 20, 2021

Temp ( °F °C ) Dew Point ( °F °C ) Humidity (%) Winds ( mph kmh ) Pressure ( in mb ) Visibility ( mi km ) Precip ( " mm )
12:15 am 00:15 Clear 57 14 46 8 67 67 SW 7 11 30.14 1021 10 16 N/A
12:35 am 00:35 Clear 57 14 46 8 67 67 WSW 7 11 30.14 1021 10 16 N/A
12:55 am 00:55 Clear 52 11 46 8 82 82 W 7 11 30.14 1021 10 16 N/A
1:15 am 01:15 Clear 54 12 46 8 77 77 W 7 11 30.15 1021 10 16 N/A
1:35 am 01:35 Clear 54 12 46 8 77 77 W 6 9 30.14 1021 10 16 N/A
1:55 am 01:55 Clear 54 12 46 8 77 77 W 8 13 30.14 1021 10 16 N/A
2:15 am 02:15 Clear 55 13 46 8 72 72 W 8 13 30.14 1021 10 16 N/A
2:35 am 02:35 Clear 57 14 46 8 67 67 N N/A 30.14 1021 10 16 N/A
2:55 am 02:55 Clear 59 15 46 8 63 63 S 5 7 30.14 1021 10 16 N/A
3:15 am 03:15 Clear 57 14 46 8 67 67 N N/A 30.14 1021 10 16 N/A
3:35 am 03:35 Clear 55 13 46 8 72 72 N N/A 30.14 1021 10 16 N/A
3:55 am 03:55 Clear 55 13 46 8 72 72 SSE 3 6 30.14 1021 10 16 N/A
4:15 am 04:15 Clear 57 14 46 8 67 67 S 3 6 30.13 1020 10 16 N/A
4:35 am 04:35 Clear 55 13 46 8 72 72 N N/A 30.13 1020 10 16 N/A
4:55 am 04:55 Clear 61 16 46 8 59 59 N N/A 30.14 1021 10 16 N/A
5:15 am 05:15 Clear 57 14 46 8 67 67 S 3 6 30.14 1021 10 16 N/A
5:35 am 05:35 Clear 59 15 48 9 68 68 WNW 6 9 30.15 1021 10 16 N/A
5:55 am 05:55 Clear 61 16 48 9 63 63 WNW 7 11 30.15 1021 10 16 N/A
6:15 am 06:15 Clear 61 16 48 9 63 63 WNW 5 7 30.16 1021 10 16 N/A
6:35 am 06:35 Clear 61 16 48 9 63 63 NW 13 20 30.16 1021 10 16 N/A
6:55 am 06:55 Clear 61 16 46 8 59 59 WNW 3 6 30.16 1021 10 16 N/A
7:15 am 07:15 Clear 59 15 46 8 63 63 WNW 9 15 30.17 1022 10 16 N/A
7:35 am 07:35 Sunny 61 16 48 9 63 63 WNW 10 17 30.17 1022 10 16 N/A
7:55 am 07:55 Sunny 61 16 48 9 63 63 W 6 9 30.18 1022 10 16 N/A
8:15 am 08:15 Sunny 61 16 48 9 63 63 WSW 3 6 30.18 1022 10 16 N/A
8:35 am 08:35 Sunny 63 17 50 10 64 64 WNW 6 9 30.19 1022 10 16 N/A
8:55 am 08:55 Sunny 63 17 50 10 64 64 WNW 13 20 30.19 1022 10 16 N/A
9:15 am 09:15 Sunny 64 18 50 10 60 60 NW 15 24 30.18 1022 10 16 N/A
9:35 am 09:35 Sunny 64 18 50 10 60 60 WNW 13 20 30.19 1022 10 16 N/A
9:55 am 09:55 Sunny 66 19 52 11 60 60 WNW 15 24 30.19 1022 10 16 N/A
10:15 am 10:15 Sunny 68 20 50 10 53 53 WNW 12 19 30.19 1022 10 16 N/A
10:35 am 10:35 Sunny 68 20 50 10 53 53 NW 6 9 30.20 1023 10 16 N/A
11:15 am 11:15 Sunny 70 21 52 11 53 53 WNW 13 20 30.19 1022 10 16 N/A
11:35 am 11:35 Sunny 70 21 52 11 53 53 NW 14 22 30.18 1022 10 16 N/A
11:55 am 11:55 Sunny 72 22 52 11 50 50 WNW 9 15 30.18 1022 10 16 N/A
12:15 pm 12:15 Sunny 72 22 52 11 50 50 WNW 13 20 30.18 1022 10 16 N/A
12:35 pm 12:35 Sunny 72 22 52 11 50 50 NW 12 19 30.17 1022 10 16 N/A
12:55 pm 12:55 Sunny 72 22 52 11 50 50 WNW 16 26 30.16 1021 10 16 N/A
1:15 pm 13:15 Sunny 73 23 52 11 47 47 WNW 8 13 30.15 1021 10 16 N/A
1:35 pm 13:35 Sunny 73 23 52 11 47 47 NW 12 19 30.14 1021 10 16 N/A
1:55 pm 13:55 Sunny 73 23 52 11 47 47 WNW 13 20 30.14 1021 10 16 N/A
2:15 pm 14:15 Sunny 73 23 52 11 47 47 W 10 17 30.13 1020 10 16 N/A
2:35 pm 14:35 Sunny 73 23 52 11 47 47 NW 12 19 30.12 1020 10 16 N/A
2:55 pm 14:55 Sunny 73 23 52 11 47 47 WNW 10 17 30.12 1020 10 16 N/A
3:15 pm 15:15 Sunny 75 24 54 12 47 47 W 7 11 30.11 1019 10 16 N/A
3:35 pm 15:35 Sunny 75 24 52 11 44 44 W 9 15 30.11 1019 10 16 N/A
3:55 pm 15:55 Sunny 73 23 52 11 47 47 W 10 17 30.11 1020 10 16 N/A
4:15 pm 16:15 Sunny 73 23 52 11 47 47 WNW 8 13 30.10 1019 10 16 N/A
4:35 pm 16:35 Sunny 73 23 52 11 47 47 W 5 7 30.10 1019 10 16 N/A
4:55 pm 16:55 Sunny 73 23 52 11 47 47 WSW 7 11 30.10 1019 10 16 N/A
5:15 pm 17:15 Sunny 73 23 52 11 47 47 WSW 7 11 30.09 1019 10 16 N/A
5:35 pm 17:35 Sunny 73 23 52 11 47 47 W 5 7 30.09 1019 10 16 N/A
5:55 pm 17:55 Sunny 72 22 52 11 50 50 SW 5 7 30.09 1019 10 16 N/A
6:15 pm 18:15 Sunny 72 22 52 11 50 50 N N/A 30.09 1019 10 16 N/A
6:35 pm 18:35 Clear 70 21 52 11 53 53 N N/A 30.10 1019 10 16 N/A
6:55 pm 18:55 Clear 66 19 54 12 64 64 SW 5 7 30.10 1019 10 16 N/A
7:15 pm 19:15 Clear 64 18 54 12 68 68 SSW 5 7 30.10 1019 10 16 N/A
7:35 pm 19:35 Clear 63 17 54 12 73 73 N N/A 30.12 1020 10 16 N/A
7:55 pm 19:55 Clear 61 16 54 12 77 77 N N/A 30.12 1020 10 16 N/A
8:15 pm 20:15 Clear 59 15 54 12 82 82 N N/A 30.12 1020 10 16 N/A
8:35 pm 20:35 Clear 59 15 54 12 82 82 N N/A 30.12 1020 10 16 N/A
8:55 pm 20:55 Clear 59 15 54 12 82 82 W 5 7 30.12 1020 10 16 N/A
9:15 pm 21:15 Clear 59 15 54 12 82 82 WSW 3 6 30.11 1020 10 16 N/A
9:35 pm 21:35 Clear 57 14 54 12 88 88 WSW 3 6 30.12 1020 10 16 N/A
9:55 pm 21:55 Clear 55 13 54 12 94 94 W 5 7 30.12 1020 10 16 N/A
10:15 pm 22:15 Clear 55 13 54 12 94 94 N N/A 30.11 1020 10 16 N/A
10:35 pm 22:35 Clear 55 13 52 11 88 88 W 5 7 30.11 1020 10 16 N/A
10:55 pm 22:55 Clear 54 12 52 11 94 94 W 5 7 30.11 1020 10 16 N/A
11:15 pm 23:15 Clear 55 13 52 11 88 88 N N/A 30.10 1019 10 16 N/A
11:35 pm 23:35 Clear 55 13 52 11 88 88 WSW 6 9 30.10 1019 10 16 N/A
11:55 pm 23:55 Clear 55 13 52 11 88 88 SW 3 6 30.10 1019 10 16 N/A

Powered by AerisWeather